TA2LKM-12 Weather Reports


Display with metric or nautical units.
time (UTC)temp
F
wind
direction
speed
MPH
gust
MPH
rain 1hr
in
rain 24hr
in
rain mn
in
humidity
%
barometer
mb
20260502123002 56 0 0.0 0.0 0.00 0.00 0.00 45 1000.5
20260502113005 56 0 0.0 0.0 0.00 0.00 0.00 45 1001.1
20260502110003 58 0 0.0 0.0 0.00 0.00 0.00 43 1001.0
20260502103004 61 0 0.0 0.0 0.00 0.00 0.00 34 1001.1
20260502070004 59 0 0.0 0.0 0.00 0.00 0.00 41 1002.0
20260502063003 56 0 0.0 0.0 0.00 0.00 0.00 45 1002.2
20260502060003 60 0 0.0 0.0 0.00 0.00 0.00 42 -166.2
20260502053005 55 0 0.0 0.0 0.00 0.00 0.00 53 1002.5
20260502050003 51 0 0.0 0.0 0.00 0.00 0.00 58 1002.6
20260502043002 48 0 0.0 0.0 0.00 0.00 0.00 64 1002.5
20260502040002 47 0 0.0 0.0 0.00 0.00 0.00 67 1002.4
20260502033003 46 0 0.0 0.0 0.00 0.00 0.00 71 1002.3
20260502030002 46 0 0.0 0.0 0.00 0.00 0.00 73 1002.2
20260502023003 45 0 0.0 0.0 0.00 0.00 0.00 72 1002.3
20260502020004 46 0 0.0 0.0 0.00 0.00 0.00 71 1002.6
20260502013003 46 0 0.0 0.0 0.00 0.00 0.00 70 1003.0
20260502010008 46 0 0.0 0.0 0.00 0.00 0.00 67 1003.4
20260502003004 45 0 0.0 0.0 0.00 0.00 0.00 75 1003.5
20260502000002 45 0 0.0 0.0 0.00 0.00 0.00 70 1003.8
20260501233003 46 0 0.0 0.0 0.00 0.00 0.00 71 1159.8
20260501230003 46 0 0.0 0.0 0.00 0.00 0.00 75 1004.2
20260501223003 46 0 0.0 0.0 0.00 0.00 0.00 78 1004.4
20260501220002 46 0 0.0 0.0 0.00 0.00 0.00 78 1004.6
20260501213002 47 0 0.0 0.0 0.00 0.00 0.00 79 1004.6
20260501210004 47 0 0.0 0.0 0.00 0.00 0.00 79 1004.8
20260501203004 46 0 0.0 0.0 0.00 0.00 0.00 80 1004.9
20260501200003 46 0 0.0 0.0 0.00 0.00 0.00 82 1005.0
20260501190005 47 0 0.0 0.0 0.00 0.00 0.00 76 1004.8
20260501183003 47 0 0.0 0.0 0.00 0.00 0.00 82 1004.8
20260501180002 47 0 0.0 0.0 0.00 0.00 0.00 84 1004.6
20260501173003 47 0 0.0 0.0 0.00 0.00 0.00 73 1004.4
20260501170002 47 0 0.0 0.0 0.00 0.00 0.00 74 1004.2
20260501163002 48 0 0.0 0.0 0.00 0.00 0.00 74 -164.4
20260501160004 48 0 0.0 0.0 0.00 0.00 0.00 78 1004.2
20260501153003 49 0 0.0 0.0 0.00 0.00 0.00 80 1004.1
20260501150004 48 0 0.0 0.0 0.00 0.00 0.00 84 1004.0
20260501143004 49 0 0.0 0.0 0.00 0.00 0.00 89 1003.9